This demonstration page uses our WeatherBlox Daily Observations layout. Learn more.

Left ArrowRight Arrow

Hourly Observations for October 28, 2021

Temp ( °F °C ) Dew Point ( °F °C ) Humidity (%) Winds ( mph kmh ) Pressure ( in mb ) Visibility ( mi km ) Precip ( " mm )
12:53 am 00:53 Clear 47 8.3 15 -9.4 28 28 N 8 13 29.92 1013 10 16 N/A
1:53 am 01:53 Clear 45 7.2 15 -9.4 30 30 N 6 9 29.93 1014 10 16 N/A
2:53 am 02:53 Clear 50 10 16 -8.9 26 26 N 14 22 29.96 1015 10 16 N/A
3:53 am 03:53 Clear 46 7.8 16 -8.9 30 30 N 7 11 29.98 1015 10 16 N/A
4:53 am 04:53 Clear 42 5.6 16 -8.9 35 35 N 8 13 30.01 1016 10 16 N/A
5:53 am 05:53 Clear 42 5.6 17 -8.3 36 36 N 8 13 30.03 1017 10 16 N/A
6:53 am 06:53 Clear 40 4.4 17 -8.3 40 40 N 7 11 30.06 1018 10 16 N/A
7:53 am 07:53 Clear 38 3.3 17 -8.3 43 43 NNW 8 13 30.09 1019 10 16 N/A
8:53 am 08:53 Sunny 44 6.7 18 -7.8 35 35 N 6 9 30.12 1020 10 16 N/A
9:53 am 09:53 Sunny 52 11.1 19 -7.2 27 27 NW 6 9 30.14 1021 10 16 N/A
10:53 am 10:53 Sunny 63 17.2 20 -6.7 19 19 N 6 9 30.14 1021 10 16 N/A
11:53 am 11:53 Sunny 65 18.3 22 -5.6 19 19 SW 3 6 30.14 1021 10 16 N/A
12:53 pm 12:53 Sunny 68 20 22 -5.6 17 17 VRB 5 7 30.13 1020 10 16 N/A
1:53 pm 13:53 Sunny 71 21.7 21 -6.1 15 15 WNW 6 9 30.09 1019 10 16 N/A
2:53 pm 14:53 Sunny 71 21.7 21 -6.1 15 15 VRB 3 6 30.06 1018 10 16 N/A
3:53 pm 15:53 Sunny 72 22.2 20 -6.7 14 14 undefined N/A 30.04 1017 10 16 N/A
4:53 pm 16:53 Sunny 73 22.8 19 -7.2 13 13 W 12 19 30.04 1017 10 16 N/A
5:53 pm 17:53 Sunny 72 22.2 19 -7.2 13 13 NW 7 11 30.04 1017 10 16 N/A
6:53 pm 18:53 Sunny 69 20.6 19 -7.2 15 15 WNW 5 7 30.05 1018 10 16 N/A
7:53 pm 19:53 Clear 62 16.7 19 -7.2 19 19 W 7 11 30.08 1019 10 16 N/A
8:53 pm 20:53 Clear 59 15 19 -7.2 21 21 W 8 13 30.08 1019 10 16 N/A
9:53 pm 21:53 Clear 57 13.9 20 -6.7 24 24 W 7 11 30.09 1019 10 16 N/A
10:53 pm 22:53 Clear 54 12.2 19 -7.2 25 25 NE 7 11 30.09 1019 10 16 N/A
11:53 pm 23:53 Clear 55 12.8 20 -6.7 25 25 ENE 8 13 30.10 1019 10 16 N/A

Powered by AerisWeather